TAP1705 GMMN-LPMA

Flight info

Callsign TAP1705
Flight time 1h 29m
Altitude 36000
Route ODAXA UH899 IBALU DCT SUBAL/N0453F350 DCT LIDRO
Aircraft A320/M-SDE3FGHIRWY/LB1

Departure

Time 2026-05-06 18:14
Airport Mohammed V International Airport (GMMN)

Arrival

Time 2026-05-06 19:43
Airport Cristiano Ronaldo International Airport (LPMA)
Time Latitude Longitude Altitude Speed Heading
2026-05-06 17:51 33.37195 -7.58209 762 ft 0 kts 75°
2026-05-06 17:56 33.37195 -7.58210 653 ft 0 kts 75°
2026-05-06 18:02 33.37193 -7.58219 653 ft 2 kts 75°
2026-05-06 18:02 33.37189 -7.58239 653 ft 2 kts 75°
2026-05-06 18:02 33.37185 -7.58259 655 ft 2 kts 75°
2026-05-06 18:02 33.37180 -7.58278 654 ft 2 kts 100°
2026-05-06 18:03 33.37186 -7.58297 657 ft 2 kts 150°
2026-05-06 18:03 33.37201 -7.58305 653 ft 2 kts 162°
2026-05-06 18:03 33.37210 -7.58308 653 ft 0 kts 162°
2026-05-06 18:05 33.37192 -7.58301 655 ft 7 kts 162°
2026-05-06 18:06 33.37148 -7.58284 653 ft 6 kts 163°
2026-05-06 18:06 33.37115 -7.58273 654 ft 4 kts 165°
2026-05-06 18:06 33.37082 -7.58263 653 ft 9 kts 164°
2026-05-06 18:06 33.37039 -7.58250 653 ft 5 kts 164°
2026-05-06 18:07 33.36992 -7.58235 653 ft 7 kts 166°
2026-05-06 18:07 33.36948 -7.58244 653 ft 11 kts 225°
2026-05-06 18:07 33.36915 -7.58363 653 ft 14 kts 255°
2026-05-06 18:07 33.36880 -7.58451 653 ft 11 kts 215°
2026-05-06 18:08 33.36792 -7.58445 653 ft 22 kts 165°
2026-05-06 18:08 33.36632 -7.58388 655 ft 23 kts 161°
2026-05-06 18:08 33.36483 -7.58337 654 ft 21 kts 165°
2026-05-06 18:08 33.36348 -7.58290 652 ft 19 kts 163°
2026-05-06 18:09 33.36226 -7.58249 654 ft 17 kts 165°
2026-05-06 18:09 33.36118 -7.58213 652 ft 15 kts 165°
2026-05-06 18:09 33.36020 -7.58179 653 ft 14 kts 163°
2026-05-06 18:09 33.35933 -7.58148 652 ft 12 kts 164°
2026-05-06 18:10 33.35821 -7.58110 654 ft 22 kts 164°
2026-05-06 18:10 33.35680 -7.58063 654 ft 20 kts 165°
2026-05-06 18:10 33.35553 -7.58018 655 ft 18 kts 161°
2026-05-06 18:10 33.35440 -7.57979 652 ft 16 kts 164°
2026-05-06 18:11 33.35346 -7.57948 654 ft 10 kts 167°
2026-05-06 18:11 33.35286 -7.57956 653 ft 8 kts 203°
2026-05-06 18:11 33.35241 -7.58064 655 ft 19 kts 255°
2026-05-06 18:11 33.35210 -7.58207 656 ft 17 kts 257°
2026-05-06 18:12 33.35243 -7.58271 654 ft 0 kts 340°
2026-05-06 18:13 33.35246 -7.58272 654 ft 3 kts 341°
2026-05-06 18:13 33.35451 -7.58342 648 ft 66 kts 344°
2026-05-06 18:13 33.36096 -7.58563 645 ft 124 kts 344°
2026-05-06 18:13 33.37075 -7.58899 721 ft 161 kts 344°
2026-05-06 18:14 33.38126 -7.59259 1345 ft 159 kts 345°
2026-05-06 18:14 33.39193 -7.59619 2038 ft 160 kts 344°
2026-05-06 18:14 33.40294 -7.60059 2406 ft 177 kts 339°
2026-05-06 18:14 33.41463 -7.60762 2654 ft 200 kts 331°
2026-05-06 18:15 33.42637 -7.61794 2967 ft 221 kts 320°
2026-05-06 18:15 33.43727 -7.63175 3548 ft 234 kts 310°
2026-05-06 18:15 33.44653 -7.64793 4352 ft 238 kts 305°
2026-05-06 18:15 33.45585 -7.66473 4802 ft 245 kts 304°
2026-05-06 18:16 33.46520 -7.68153 5208 ft 248 kts 304°
2026-05-06 18:16 33.47476 -7.69869 6071 ft 248 kts 302°
2026-05-06 18:16 33.48433 -7.71586 6902 ft 248 kts 301°
2026-05-06 18:16 33.49398 -7.73319 7660 ft 251 kts 301°
2026-05-06 18:17 33.50370 -7.75068 8431 ft 254 kts 300°
2026-05-06 18:17 33.51352 -7.76842 9201 ft 257 kts 300°
2026-05-06 18:17 33.52344 -7.78634 9954 ft 260 kts 300°
2026-05-06 18:17 33.53348 -7.80444 10647 ft 262 kts 300°
2026-05-06 18:18 33.54365 -7.82277 11324 ft 265 kts 300°
2026-05-06 18:18 33.55391 -7.84130 12002 ft 268 kts 300°
2026-05-06 18:18 33.56413 -7.85978 12676 ft 271 kts 300°
2026-05-06 18:18 33.57461 -7.87872 13352 ft 274 kts 300°
2026-05-06 18:19 33.58642 -7.89686 13987 ft 280 kts 312°
2026-05-06 18:19 33.60212 -7.91206 14226 ft 302 kts 321°
2026-05-06 18:19 33.61991 -7.92707 14353 ft 324 kts 322°
2026-05-06 18:19 33.63898 -7.94301 14471 ft 344 kts 322°
2026-05-06 18:20 33.65917 -7.95984 14601 ft 363 kts 322°
2026-05-06 18:20 33.68036 -7.97752 14843 ft 376 kts 322°
2026-05-06 18:20 33.70199 -7.99560 15354 ft 381 kts 322°
2026-05-06 18:20 33.72353 -8.01365 15917 ft 384 kts 322°
2026-05-06 18:21 33.74550 -8.03212 16509 ft 387 kts 322°
2026-05-06 18:21 33.76761 -8.05075 17102 ft 389 kts 322°
2026-05-06 18:21 33.78986 -8.06948 17674 ft 392 kts 321°
2026-05-06 18:21 33.81226 -8.08837 18261 ft 395 kts 321°
2026-05-06 18:22 33.83482 -8.10743 18752 ft 397 kts 321°
2026-05-06 18:22 33.85749 -8.12660 19261 ft 400 kts 321°
2026-05-06 18:22 33.88033 -8.14592 19749 ft 402 kts 321°
2026-05-06 18:22 33.90295 -8.16508 20224 ft 404 kts 320°
2026-05-06 18:23 33.92602 -8.18465 20692 ft 407 kts 320°
2026-05-06 18:23 33.94921 -8.20432 21177 ft 409 kts 320°
2026-05-06 18:23 33.97256 -8.22411 21623 ft 412 kts 320°
2026-05-06 18:23 33.99549 -8.24477 22059 ft 410 kts 314°
2026-05-06 18:24 34.01597 -8.26864 22495 ft 410 kts 310°
2026-05-06 18:24 34.03615 -8.29303 22923 ft 412 kts 310°
2026-05-06 18:24 34.05643 -8.31751 23337 ft 414 kts 310°
2026-05-06 18:24 34.07684 -8.34213 23701 ft 416 kts 310°
2026-05-06 18:25 34.09703 -8.36651 24046 ft 417 kts 310°
2026-05-06 18:25 34.11758 -8.39130 24378 ft 419 kts 310°
2026-05-06 18:25 34.13823 -8.41624 24697 ft 421 kts 310°
2026-05-06 18:25 34.15895 -8.44131 25008 ft 422 kts 310°
2026-05-06 18:26 34.17971 -8.46647 25312 ft 424 kts 310°
2026-05-06 18:26 34.20057 -8.49176 25616 ft 426 kts 310°
2026-05-06 18:26 34.22157 -8.51721 25905 ft 428 kts 310°
2026-05-06 18:26 34.24261 -8.54277 26190 ft 430 kts 310°
2026-05-06 18:27 34.26345 -8.56810 26465 ft 432 kts 310°
2026-05-06 18:27 34.28468 -8.59391 26742 ft 433 kts 310°
2026-05-06 18:27 34.30592 -8.61980 27008 ft 435 kts 310°
2026-05-06 18:27 34.32723 -8.64586 27272 ft 436 kts 310°
2026-05-06 18:28 34.34863 -8.67203 27522 ft 438 kts 310°
2026-05-06 18:28 34.37008 -8.69825 27767 ft 439 kts 310°
2026-05-06 18:28 34.39162 -8.72458 28014 ft 441 kts 310°
2026-05-06 18:28 34.41326 -8.75099 28240 ft 442 kts 310°
2026-05-06 18:29 34.43339 -8.77835 28465 ft 440 kts 303°
2026-05-06 18:29 34.44986 -8.80931 28740 ft 435 kts 294°
2026-05-06 18:29 34.46220 -8.84255 29044 ft 431 kts 288°
2026-05-06 18:29 34.47332 -8.87625 29351 ft 431 kts 289°
2026-05-06 18:30 34.48443 -8.90992 29671 ft 430 kts 288°
2026-05-06 18:30 34.49551 -8.94347 29991 ft 429 kts 288°
2026-05-06 18:30 34.50658 -8.97701 30267 ft 428 kts 288°
2026-05-06 18:30 34.51761 -9.01049 30531 ft 427 kts 288°
2026-05-06 18:31 34.52861 -9.04394 30789 ft 426 kts 288°
2026-05-06 18:31 34.53944 -9.07686 31045 ft 426 kts 288°
2026-05-06 18:31 34.55039 -9.11021 31314 ft 425 kts 288°
2026-05-06 18:31 34.56129 -9.14350 31573 ft 425 kts 288°
2026-05-06 18:32 34.57221 -9.17678 31833 ft 424 kts 288°
2026-05-06 18:32 34.58308 -9.20996 32099 ft 423 kts 288°
2026-05-06 18:32 34.59392 -9.24309 32373 ft 422 kts 288°
2026-05-06 18:32 34.60471 -9.27623 32633 ft 421 kts 287°
2026-05-06 18:33 34.61550 -9.30927 32899 ft 421 kts 287°
2026-05-06 18:33 34.62612 -9.34181 33175 ft 420 kts 287°
2026-05-06 18:33 34.63685 -9.37478 33448 ft 419 kts 287°
2026-05-06 18:33 34.64751 -9.40770 33696 ft 419 kts 287°
2026-05-06 18:34 34.65816 -9.44064 33947 ft 419 kts 287°
2026-05-06 18:34 34.66880 -9.47350 34175 ft 418 kts 288°
2026-05-06 18:34 34.67946 -9.50633 34394 ft 417 kts 288°
2026-05-06 18:34 34.69008 -9.53912 34602 ft 417 kts 288°
2026-05-06 18:35 34.70071 -9.57193 34804 ft 417 kts 288°
2026-05-06 18:35 34.71128 -9.60470 34999 ft 417 kts 288°
2026-05-06 18:35 34.72186 -9.63750 35190 ft 416 kts 288°
2026-05-06 18:35 34.73228 -9.66980 35366 ft 416 kts 288°
2026-05-06 18:36 34.74282 -9.70257 35566 ft 416 kts 288°
2026-05-06 18:36 34.75331 -9.73530 35734 ft 416 kts 288°
2026-05-06 18:36 34.76381 -9.76806 35910 ft 415 kts 288°
2026-05-06 18:36 34.77433 -9.80084 35978 ft 417 kts 288°
2026-05-06 18:37 34.79540 -9.86673 35986 ft 418 kts 289°
2026-05-06 18:37 34.81655 -9.93260 35986 ft 418 kts 289°
2026-05-06 18:38 34.83747 -9.99808 36019 ft 418 kts 289°
2026-05-06 18:38 34.85852 -10.06408 35991 ft 418 kts 289°
2026-05-06 18:39 34.87949 -10.13022 36000 ft 419 kts 289°
2026-05-06 18:40 34.91096 -10.22959 35997 ft 419 kts 289°
2026-05-06 18:40 34.93167 -10.29536 36008 ft 419 kts 289°
2026-05-06 18:41 34.95253 -10.36161 36012 ft 419 kts 289°
2026-05-06 18:41 34.97337 -10.42790 36013 ft 418 kts 289°
2026-05-06 18:42 34.99401 -10.49369 36013 ft 418 kts 289°
2026-05-06 18:42 35.01476 -10.55996 36011 ft 418 kts 289°
2026-05-06 18:43 35.03545 -10.62622 36032 ft 418 kts 290°
2026-05-06 18:43 35.05615 -10.69250 36025 ft 418 kts 290°
2026-05-06 18:44 35.07672 -10.75876 36029 ft 417 kts 290°
2026-05-06 18:44 35.09711 -10.82456 36024 ft 417 kts 290°
2026-05-06 18:45 35.11766 -10.89079 36020 ft 417 kts 290°
2026-05-06 18:45 35.13813 -10.95706 36015 ft 417 kts 290°
2026-05-06 18:46 35.15853 -11.02341 36017 ft 417 kts 290°
2026-05-06 18:46 35.17875 -11.08935 36019 ft 417 kts 290°
2026-05-06 18:47 35.19910 -11.15564 36023 ft 416 kts 290°
2026-05-06 18:47 35.21935 -11.22195 36022 ft 416 kts 290°
2026-05-06 18:48 35.23962 -11.28822 36034 ft 416 kts 290°
2026-05-06 18:48 35.25989 -11.35455 36033 ft 416 kts 291°
2026-05-06 18:49 35.27989 -11.42044 36038 ft 416 kts 291°
2026-05-06 18:49 35.29996 -11.48672 36036 ft 415 kts 291°
2026-05-06 18:50 35.31998 -11.55303 36036 ft 415 kts 291°
2026-05-06 18:50 35.33996 -11.61930 36037 ft 415 kts 291°
2026-05-06 18:51 35.35978 -11.68514 36038 ft 415 kts 291°
2026-05-06 18:51 35.37970 -11.75145 36040 ft 415 kts 291°
2026-05-06 18:52 35.39956 -11.81782 36040 ft 415 kts 291°
2026-05-06 18:52 35.41945 -11.88417 36040 ft 415 kts 291°
2026-05-06 18:53 35.43914 -11.95015 36039 ft 415 kts 291°
2026-05-06 18:53 35.45898 -12.01660 36044 ft 415 kts 291°
2026-05-06 18:54 35.47866 -12.08313 36039 ft 415 kts 291°
2026-05-06 18:54 35.49832 -12.14958 36050 ft 414 kts 291°
2026-05-06 18:55 35.51786 -12.21605 36052 ft 414 kts 291°
2026-05-06 18:55 35.53154 -12.28406 36053 ft 418 kts 275°
2026-05-06 18:55 35.53016 -12.31983 36052 ft 422 kts 264°
2026-05-06 18:56 35.52275 -12.35493 36056 ft 428 kts 253°
2026-05-06 18:56 35.49383 -12.41964 36033 ft 435 kts 244°
2026-05-06 18:57 35.46243 -12.48331 36037 ft 436 kts 244°
2026-05-06 18:57 35.43123 -12.54668 36042 ft 437 kts 244°
2026-05-06 18:58 35.39975 -12.61038 36042 ft 437 kts 244°
2026-05-06 18:58 35.36817 -12.67407 36043 ft 438 kts 244°
2026-05-06 18:59 35.33655 -12.73776 36043 ft 438 kts 244°
2026-05-06 18:59 35.30488 -12.80145 36048 ft 438 kts 245°
2026-05-06 19:00 35.27351 -12.86475 36051 ft 438 kts 245°
2026-05-06 19:00 35.24181 -12.92849 36060 ft 439 kts 245°
2026-05-06 19:01 35.20992 -12.99216 36065 ft 439 kts 245°
2026-05-06 19:01 35.17799 -13.05583 36063 ft 439 kts 245°
2026-05-06 19:02 35.14610 -13.11948 36067 ft 439 kts 245°
2026-05-06 19:02 35.11433 -13.18268 36050 ft 439 kts 245°
2026-05-06 19:03 35.08233 -13.24632 36060 ft 440 kts 245°
2026-05-06 19:03 35.05033 -13.30991 36061 ft 440 kts 245°
2026-05-06 19:04 35.01826 -13.37351 36067 ft 440 kts 245°
2026-05-06 19:04 34.98628 -13.43661 36047 ft 440 kts 245°
2026-05-06 19:05 34.95400 -13.50010 36036 ft 441 kts 246°
2026-05-06 19:05 34.92174 -13.56367 36046 ft 441 kts 246°
2026-05-06 19:06 34.88951 -13.62717 36048 ft 441 kts 246°
2026-05-06 19:06 34.85714 -13.69067 36060 ft 441 kts 245°
2026-05-06 19:07 34.82491 -13.75367 36066 ft 441 kts 245°
2026-05-06 19:07 34.79247 -13.81706 36077 ft 441 kts 245°
2026-05-06 19:08 34.76003 -13.88041 36055 ft 441 kts 246°
2026-05-06 19:08 34.72759 -13.94363 36067 ft 441 kts 246°
2026-05-06 19:09 34.69525 -14.00635 36076 ft 441 kts 246°
2026-05-06 19:09 34.66282 -14.06950 36067 ft 440 kts 246°
2026-05-06 19:10 34.63034 -14.13265 36074 ft 441 kts 246°
2026-05-06 19:10 34.59778 -14.19563 36076 ft 441 kts 246°
2026-05-06 19:11 34.56529 -14.25815 36067 ft 441 kts 246°
2026-05-06 19:11 34.53261 -14.32105 36079 ft 440 kts 246°
2026-05-06 19:12 34.50003 -14.38394 36082 ft 440 kts 246°
2026-05-06 19:12 34.46735 -14.44674 36083 ft 440 kts 246°
2026-05-06 19:13 34.43463 -14.50949 36092 ft 440 kts 246°
2026-05-06 19:13 34.40210 -14.57175 36092 ft 440 kts 246°
2026-05-06 19:14 34.36933 -14.63436 36073 ft 440 kts 246°
2026-05-06 19:14 34.33650 -14.69700 36063 ft 441 kts 246°
2026-05-06 19:15 34.30360 -14.75961 36076 ft 441 kts 246°
2026-05-06 19:15 34.27080 -14.82175 36083 ft 441 kts 246°
2026-05-06 19:16 34.23774 -14.88430 36087 ft 441 kts 246°
2026-05-06 19:16 34.20485 -14.94688 36064 ft 442 kts 246°
2026-05-06 19:17 34.17181 -15.00947 36072 ft 442 kts 246°
2026-05-06 19:17 34.13863 -15.07201 36078 ft 443 kts 246°
2026-05-06 19:18 34.10566 -15.13394 36459 ft 431 kts 245°
2026-05-06 19:18 34.08971 -15.16315 37821 ft 403 kts 246°
2026-05-06 19:18 34.07418 -15.19104 38082 ft 405 kts 246°
2026-05-06 19:18 34.05871 -15.21984 37846 ft 413 kts 247°
2026-05-06 19:19 34.04331 -15.24950 37638 ft 421 kts 247°
2026-05-06 19:19 34.02774 -15.27980 37393 ft 429 kts 247°
2026-05-06 19:19 34.01181 -15.31051 37183 ft 434 kts 246°
2026-05-06 19:19 33.99560 -15.34130 36973 ft 437 kts 246°
2026-05-06 19:20 33.97915 -15.37217 36768 ft 438 kts 246°
2026-05-06 19:20 33.96279 -15.40261 36557 ft 440 kts 245°
2026-05-06 19:20 33.94611 -15.43355 36352 ft 441 kts 245°
2026-05-06 19:20 33.92940 -15.46452 36212 ft 443 kts 245°
2026-05-06 19:21 33.91264 -15.49563 36291 ft 444 kts 245°
2026-05-06 19:21 33.89589 -15.52682 36017 ft 443 kts 245°
2026-05-06 19:21 33.87916 -15.55793 35785 ft 443 kts 245°
2026-05-06 19:21 33.86239 -15.58910 35534 ft 444 kts 245°
2026-05-06 19:22 33.84560 -15.62034 35163 ft 445 kts 245°
2026-05-06 19:22 33.82874 -15.65175 34286 ft 449 kts 245°
2026-05-06 19:22 33.81196 -15.68299 33354 ft 453 kts 245°
2026-05-06 19:22 33.79478 -15.71490 32426 ft 456 kts 245°
2026-05-06 19:23 33.77746 -15.74695 31470 ft 460 kts 244°
2026-05-06 19:23 33.75994 -15.77933 30455 ft 465 kts 244°
2026-05-06 19:23 33.74221 -15.81209 29282 ft 470 kts 244°
2026-05-06 19:23 33.72436 -15.84508 28175 ft 472 kts 244°
2026-05-06 19:24 33.70640 -15.87824 27021 ft 476 kts 243°
2026-05-06 19:24 33.68826 -15.91137 26293 ft 472 kts 241°
2026-05-06 19:24 33.66744 -15.94188 25539 ft 475 kts 231°
2026-05-06 19:24 33.64252 -15.96825 24762 ft 480 kts 221°
2026-05-06 19:25 33.61458 -15.99043 23989 ft 482 kts 217°
2026-05-06 19:25 33.58676 -16.01165 23168 ft 479 kts 217°
2026-05-06 19:25 33.55879 -16.03300 22452 ft 473 kts 217°
2026-05-06 19:25 33.53113 -16.05410 21752 ft 469 kts 217°
2026-05-06 19:26 33.50382 -16.07497 21073 ft 464 kts 217°
2026-05-06 19:26 33.47679 -16.09564 20413 ft 459 kts 217°
2026-05-06 19:26 33.45001 -16.11611 19786 ft 454 kts 217°
2026-05-06 19:26 33.42357 -16.13631 19175 ft 449 kts 217°
2026-05-06 19:27 33.39740 -16.15629 18591 ft 443 kts 216°
2026-05-06 19:27 33.37188 -16.17579 17988 ft 438 kts 216°
2026-05-06 19:27 33.34640 -16.19523 17461 ft 431 kts 216°
2026-05-06 19:27 33.32125 -16.21435 16926 ft 425 kts 216°
2026-05-06 19:28 33.29647 -16.23317 16417 ft 420 kts 216°
2026-05-06 19:28 33.27195 -16.25180 15888 ft 415 kts 216°
2026-05-06 19:28 33.24771 -16.27023 15367 ft 411 kts 216°
2026-05-06 19:28 33.22371 -16.28847 14823 ft 407 kts 216°
2026-05-06 19:29 33.19989 -16.30656 14281 ft 404 kts 216°
2026-05-06 19:29 33.17624 -16.32453 13687 ft 402 kts 216°
2026-05-06 19:29 33.15277 -16.34234 13099 ft 398 kts 215°
2026-05-06 19:29 33.12985 -16.35967 12509 ft 394 kts 215°
2026-05-06 19:30 33.10685 -16.37703 11921 ft 389 kts 215°
2026-05-06 19:30 33.08408 -16.39423 11338 ft 385 kts 215°
2026-05-06 19:30 33.06166 -16.41118 10990 ft 375 kts 215°
2026-05-06 19:30 33.04015 -16.42744 10867 ft 359 kts 215°
2026-05-06 19:31 33.01951 -16.44301 10741 ft 344 kts 215°
2026-05-06 19:31 32.99966 -16.45795 10605 ft 331 kts 215°
2026-05-06 19:31 32.96212 -16.48624 10363 ft 308 kts 215°
2026-05-06 19:32 32.94456 -16.49948 10190 ft 300 kts 215°
2026-05-06 19:32 32.92752 -16.51294 10075 ft 287 kts 222°
2026-05-06 19:32 32.91288 -16.52838 9952 ft 276 kts 226°
2026-05-06 19:32 32.89891 -16.54338 9818 ft 266 kts 225°
2026-05-06 19:33 32.88540 -16.55781 9683 ft 256 kts 225°
2026-05-06 19:33 32.87244 -16.57163 9549 ft 245 kts 225°
2026-05-06 19:33 32.85999 -16.58491 9389 ft 237 kts 225°
2026-05-06 19:33 32.84790 -16.59780 9217 ft 228 kts 226°
2026-05-06 19:34 32.83662 -16.60975 9045 ft 214 kts 226°
2026-05-06 19:34 32.82593 -16.62092 8906 ft 198 kts 223°
2026-05-06 19:34 32.81467 -16.62999 8614 ft 193 kts 214°
2026-05-06 19:34 32.80255 -16.63669 8263 ft 192 kts 203°
2026-05-06 19:35 32.78997 -16.64179 7905 ft 191 kts 204°
2026-05-06 19:35 32.77743 -16.64690 7531 ft 190 kts 202°
2026-05-06 19:35 32.76497 -16.65200 7188 ft 188 kts 202°
2026-05-06 19:35 32.75259 -16.65705 6809 ft 189 kts 204°
2026-05-06 19:36 32.74441 -16.66038 6632 ft 184 kts 204°
2026-05-06 19:36 32.73284 -16.66505 6518 ft 169 kts 202°
2026-05-06 19:36 32.72193 -16.66947 6263 ft 164 kts 202°
2026-05-06 19:36 32.71124 -16.67382 5976 ft 162 kts 205°
2026-05-06 19:37 32.69694 -16.67963 5476 ft 168 kts 202°
2026-05-06 19:37 32.68932 -16.68272 5171 ft 174 kts 202°
2026-05-06 19:37 32.67761 -16.68749 4694 ft 180 kts 201°
2026-05-06 19:37 32.66588 -16.69226 4208 ft 181 kts 201°
2026-05-06 19:38 32.65405 -16.69707 3824 ft 177 kts 202°
2026-05-06 19:38 32.64260 -16.70170 3470 ft 169 kts 200°
2026-05-06 19:38 32.63214 -16.70739 3101 ft 163 kts 214°
2026-05-06 19:38 32.62328 -16.71563 2661 ft 162 kts 227°
2026-05-06 19:39 32.61645 -16.72570 2417 ft 148 kts 240°
2026-05-06 19:39 32.61183 -16.73631 2104 ft 144 kts 251°
2026-05-06 19:39 32.60918 -16.74760 2026 ft 144 kts 263°
2026-05-06 19:39 32.60842 -16.75948 2012 ft 145 kts 274°
2026-05-06 19:40 32.60967 -16.77125 2017 ft 143 kts 285°
2026-05-06 19:40 32.61298 -16.78235 2012 ft 142 kts 300°
2026-05-06 19:40 32.61888 -16.79165 1993 ft 142 kts 318°
2026-05-06 19:40 32.62653 -16.79845 1795 ft 138 kts 333°
2026-05-06 19:41 32.63543 -16.80228 1579 ft 137 kts 350°
2026-05-06 19:41 32.64499 -16.80349 1184 ft 140 kts 360°
2026-05-06 19:41 32.65465 -16.80379 835 ft 136 kts
2026-05-06 19:41 32.66392 -16.80340 696 ft 135 kts
2026-05-06 19:42 32.67300 -16.80092 633 ft 134 kts 24°
2026-05-06 19:42 32.68072 -16.79444 452 ft 137 kts 40°
2026-05-06 19:42 32.68754 -16.78653 269 ft 137 kts 41°
2026-05-06 19:42 32.69408 -16.77898 172 ft 116 kts 43°
2026-05-06 19:43 32.69853 -16.77379 190 ft 68 kts 44°
2026-05-06 19:43 32.70114 -16.77069 194 ft 40 kts 45°
2026-05-06 19:43 32.70291 -16.76860 195 ft 32 kts 41°
2026-05-06 19:43 32.70410 -16.76787 186 ft 14 kts 66°
2026-05-06 19:44 32.70357 -16.76762 191 ft 11 kts 227°
2026-05-06 19:44 32.70299 -16.76848 188 ft 15 kts 226°
2026-05-06 19:44 32.70220 -16.76940 193 ft 19 kts 224°
2026-05-06 19:44 32.70111 -16.77064 192 ft 33 kts 225°
2026-05-06 19:45 32.69934 -16.77277 199 ft 37 kts 223°
2026-05-06 19:45 32.69744 -16.77499 182 ft 39 kts 225°
2026-05-06 19:45 32.69548 -16.77722 175 ft 37 kts 223°
2026-05-06 19:45 32.69398 -16.77901 170 ft 19 kts 225°
2026-05-06 19:46 32.69310 -16.77957 169 ft 14 kts 158°
2026-05-06 19:46 32.69295 -16.77860 169 ft 12 kts 76°
2026-05-06 19:46 32.69339 -16.77794 169 ft 10 kts 40°
2026-05-06 19:46 32.69326 -16.77747 169 ft 4 kts 137°
2026-05-06 19:47 32.69311 -16.77730 169 ft 2 kts 138°
2026-05-06 19:47 32.69306 -16.77725 169 ft 0 kts 138°